[[{"header":{"parameterUnit":"m.s-1","parameterCategory":1,"la1":30.2991,"la2":30.254,"lo1":-89.0895,"lo2":-89.0444,"dy":0.0017,"dx":0.0017,"nx":28,"ny":28,"refTime":"2024-04-06T21:00:00:Z","depth":0,"parameterNumber":2,"parameterNumberName":"U-component_of_WINDS"},"data":[0,0,0,0,0,0,0,0,0,0,0,0,0,0,0,0,0,0,0,0,0,0,0,0,0,0,0,0,0,0,0,0,0,0,0,0,0,0,0,0,0,0,0,0,0,0,0,0,0,0,0,0,0,0,0,0,0,0,-3.155,-3.155,0,-3.1575,-3.1575,-3.1576,-3.1546,-3.1545,-3.1544,-3.1543,-3.1568,-3.1569,-3.1571,0,0,0,0,0,0,0,0,0,0,0,0,0,-3.1477,-3.1479,-3.155,-3.155,-3.1551,-3.1575,-3.1575,-3.1576,-3.1546,-3.1545,-3.1544,-3.1543,-3.1567,-3.1569,-3.1571,0,0,0,0,0,0,0,0,0,0,0,0,0,-3.1506,-3.1479,-3.155,-3.1539,-3.1538,-3.1575,-3.1575,-3.1576,-3.1547,-3.1545,-3.1543,-3.1542,-3.1566,-3.1569,-3.1571,-3.1619,0,0,-3.1579,-3.158,0,0,0,0,0,0,0,0,-3.1505,-3.1509,-3.154,-3.154,-3.1539,-3.1556,-3.1559,-3.159,-3.1547,-3.1544,-3.1543,-3.1541,-3.1565,-3.1567,-3.1576,-3.1621,-3.1622,-3.1579,-3.1581,-3.1582,-3.1582,0,0,0,0,0,0,0,-3.1503,-3.1508,-3.156,-3.1541,-3.154,-3.1533,-3.1535,-3.1565,-3.1563,-3.1544,-3.1542,-3.1545,-3.1564,-3.1573,-3.1576,-3.1622,-3.1579,-3.1581,-3.1583,-3.1584,-3.1708,-3.171,0,0,0,0,0,0,-3.1502,-3.1506,-3.1559,-3.1561,-3.1518,-3.1536,-3.1538,-3.1552,-3.1563,-3.1563,-3.1546,-3.1544,-3.157,-3.1573,-3.1577,-3.1634,-3.1582,-3.1584,-3.1585,-3.1707,-3.1709,-3.1711,0,0,0,0,0,0,-3.1501,-3.1507,-3.1558,-3.1533,-3.1539,-3.1539,-3.1555,-3.1554,-3.1562,-3.1565,-3.1564,-3.1556,-3.1569,-3.1573,-3.1609,-3.1634,-3.1585,-3.1587,-3.1705,-3.1707,-3.171,-3.1748,0,0,0,0,0,0,-3.1499,-3.1507,-3.1525,-3.1534,-3.154,-3.159,-3.1556,-3.1555,-3.1567,-3.1564,-3.1573,-3.1574,-3.1568,-3.1606,-3.1612,-3.1637,-3.1589,-3.1702,-3.1706,-3.1709,-3.1744,-3.1751,-3.1758,0,0,0,0,0,-3.1496,-3.1534,-3.1526,-3.1532,-3.1563,-3.1592,-3.1595,-3.1588,-3.1569,-3.1587,-3.1589,-3.1573,-3.1631,-3.161,-3.1616,-3.1642,-3.1701,-3.1705,-3.1709,-3.1741,-3.175,-3.1758,0,0,0,0,0,0,-3.1527,-3.1535,-3.1526,-3.1568,-3.1579,-3.1587,-3.1609,-3.1598,-3.1614,-3.161,-3.1601,-3.1603,-3.1642,-3.1646,-3.1622,-3.169,-3.1663,-3.1668,-3.1685,-3.1694,-3.17,-3.1697,-3.1591,0,0,0,0,0,-3.1539,-3.1562,-3.1567,-3.1604,-3.161,-3.1609,-3.1621,-3.1615,-3.1626,-3.1631,-3.1635,-3.1647,-3.1667,-3.1681,-3.17,-3.1746,-3.1747,-3.1767,-3.1774,-3.1779,-3.1783,-3.1808,-3.1817,-3.1724,-3.1724,-3.1724,0,0,-3.1563,-3.157,-3.1585,-3.161,-3.1618,-3.1642,-3.1613,-3.1639,-3.1656,-3.1635,-3.1668,-3.1673,-3.1685,-3.1726,-3.1744,-3.1731,-3.181,-3.1785,-3.1789,-3.179,-3.1813,-3.1822,-3.183,-3.1727,-3.1726,-3.1726,0,0,-3.1619,-3.1627,-3.1658,-3.1668,-3.1681,-3.168,-3.1688,-3.1698,-3.17,-3.1734,-3.1718,-3.174,-3.1775,-3.1785,-3.1794,-3.1857,-3.1843,-3.1864,-3.1898,-3.1922,-3.1929,-3.1936,-3.1957,-3.1965,-3.1869,-3.1869,-3.1869,0,-3.1647,-3.1682,-3.1676,-3.1703,-3.1715,-3.1698,-3.1729,-3.1739,-3.1758,-3.1766,-3.1751,-3.1797,-3.1804,-3.1847,-3.1862,-3.1871,-3.1879,-3.1861,-3.1929,-3.1935,-3.1941,-3.1961,-3.1969,-3.1871,-3.1871,-3.1871,-3.187,0,-3.1716,-3.1741,-3.1764,-3.1784,-3.1798,-3.1828,-3.1826,-3.1842,-3.1836,-3.1837,-3.1872,-3.1881,-3.1902,-3.1912,-3.1906,-3.1955,-3.1946,-3.193,-3.1902,-3.1952,-3.1971,-3.1979,-3.1874,-3.1874,-3.1873,-3.1872,0,0,-3.1788,-3.1806,-3.1815,-3.1824,-3.1838,-3.1857,-3.1887,-3.1908,-3.1921,-3.1936,-3.196,-3.1992,-3.1978,-3.1989,-3.1984,-3.2006,-3.2054,-3.1987,-3.1987,-3.1998,-3.2108,-3.2119,-3.2128,-3.2046,-3.2048,-3.2049,-3.2107,0,-3.1844,-3.1894,-3.1891,-3.1939,-3.1961,-3.1947,-3.1973,-3.1985,-3.1987,-3.2007,-3.201,-3.2033,-3.2013,-3.202,-3.2041,-3.2044,-3.2076,-3.204,-3.2068,-3.2069,-3.2063,-3.2138,-3.2148,-3.2202,-3.2114,-3.2116,-3.2117,0,-3.1914,-3.1932,-3.1982,-3.1995,-3.2004,-3.2027,-3.2047,-3.2066,-3.208,-3.2081,-3.2094,-3.2086,-3.2116,-3.209,-3.2131,-3.2106,-3.2118,-3.2122,-3.2124,-3.2124,-3.2094,-3.2139,-3.222,-3.2227,-3.2128,-3.2127,-3.2127,0,-3.1961,-3.1998,-3.2032,-3.2041,-3.2056,-3.2073,-3.208,-3.2093,-3.2106,-3.2124,-3.2132,-3.2153,-3.2164,-3.2181,-3.2179,-3.216,-3.2221,-3.2194,-3.2221,-3.2221,-3.2232,-3.2231,-3.2314,-3.2243,-3.2243,-3.2243,-3.2243,0,-3.2021,-3.2052,-3.2054,-3.2075,-3.2109,-3.2106,-3.214,-3.2146,-3.2157,-3.218,-3.2169,-3.219,-3.2187,-3.2209,-3.2208,-3.2242,-3.2247,-3.2248,-3.2247,-3.2248,-3.2247,-3.2253,-3.2249,-3.2245,-3.2245,-3.2244,-3.2244,0,-3.2078,-3.208,-3.2117,-3.213,-3.2134,-3.2159,-3.2169,-3.219,-3.2193,-3.2221,-3.2228,-3.2232,-3.2257,-3.2257,-3.2285,-3.2285,-3.2326,-3.2321,-3.2321,-3.2319,-3.2346,-3.2343,-3.2434,-3.2446,-3.2369,-3.237,-3.237,0,-3.2115,-3.2139,-3.2155,-3.2169,-3.2178,-3.2201,-3.2215,-3.2214,-3.2229,-3.2247,-3.2265,-3.229,-3.2308,-3.2349,-3.2354,-3.2376,-3.2371,-3.2402,-3.2374,-3.2374,-3.237,-3.2368,-3.237,-3.2406,-3.2407,-3.2408,-3.2408,0,-3.2181,-3.2182,-3.2202,-3.2224,-3.2242,-3.2259,-3.2274,-3.2287,-3.2287,-3.2305,-3.233,-3.2345,-3.2375,-3.2398,-3.242,-3.2428,-3.2418,-3.2418,-3.2425,-3.2425,-3.2423,-3.2423,-3.2334,-3.2415,-3.2414,-3.2414,-3.2413,-3.2413,-3.2228,-3.2249,-3.2264,-3.2287,-3.23,-3.2315,-3.2335,-3.2341,-3.2362,-3.2386,-3.2385,-3.2413,-3.2428,-3.2456,-3.2466,-3.2488,-3.2477,-3.2488,-3.249,-3.2492,-3.2494,-3.2422,-3.2492,-3.2492,-3.2492,-3.2491,-3.2491,0,-3.2292,-3.2302,-3.2324,-3.2347,-3.2366,-3.2357,-3.2375,-3.2391,-3.2416,-3.2431,-3.245,-3.248,-3.2504,-3.2512,-3.2536,-3.2552,-3.2548,-3.2558,-3.2555,-3.2557,-3.2503,-3.2494,-3.256,-3.256,-3.256,-3.256,-3.256,-3.256,-3.2328,-3.2362,-3.2365,-3.2405,-3.2415,-3.2442,-3.2453,-3.2467,-3.2479,-3.2513,-3.2533,-3.2539,-3.2552,-3.2576,-3.2597,-3.26,-3.2608,-3.2619,-3.2619,-3.2568,-3.2561,-3.2554,-3.2545,-3.2621,-3.2621,-3.2671,-3.2671,-3.2672]},{"header":{"parameterUnit":"m.s-1","parameterCategory":1,"la1":30.2991,"la2":30.254,"lo1":-89.0895,"lo2":-89.0444,"dy":0.0017,"dx":0.0017,"nx":28,"ny":28,"refTime":"2024-04-06T21:00:00:Z","depth":0,"parameterNumber":3,"parameterNumberName":"V-component_of_WINDS"},"data":[0,0,0,0,0,0,0,0,0,0,0,0,0,0,0,0,0,0,0,0,0,0,0,0,0,0,0,0,0,0,0,0,0,0,0,0,0,0,0,0,0,0,0,0,0,0,0,0,0,0,0,0,0,0,0,0,0,0,3.651,3.651,0,3.6477,3.6476,3.6476,3.6499,3.65,3.6501,3.6502,3.6461,3.6459,3.6457,0,0,0,0,0,0,0,0,0,0,0,0,0,3.659,3.6589,3.651,3.651,3.6509,3.6477,3.6476,3.6476,3.6499,3.65,3.6501,3.6503,3.6462,3.646,3.6457,0,0,0,0,0,0,0,0,0,0,0,0,0,3.6556,3.6588,3.651,3.6517,3.6517,3.6477,3.6476,3.6476,3.6498,3.65,3.6502,3.6503,3.6463,3.646,3.6457,3.6406,0,0,3.6447,3.6446,0,0,0,0,0,0,0,0,3.6558,3.6553,3.6517,3.6517,3.6517,3.6494,3.649,3.6452,3.6498,3.6505,3.6502,3.6504,3.647,3.6467,3.6457,3.6404,3.6402,3.6447,3.6445,3.6444,3.6443,0,0,0,0,0,0,0,3.656,3.6554,3.6497,3.6516,3.6516,3.652,3.6517,3.6482,3.6479,3.6505,3.6507,3.6503,3.6471,3.646,3.6456,3.6401,3.6447,3.6444,3.6442,3.6441,3.6307,3.6305,0,0,0,0,0,0,3.6563,3.6556,3.6498,3.6496,3.6542,3.6518,3.6514,3.6499,3.648,3.6478,3.6501,3.6504,3.6464,3.646,3.6455,3.6395,3.6444,3.6441,3.6439,3.6308,3.6306,3.6305,0,0,0,0,0,0,3.6564,3.6557,3.6499,3.6526,3.6519,3.6515,3.6498,3.6498,3.6487,3.6477,3.6476,3.6491,3.6465,3.6459,3.6419,3.6394,3.6439,3.6437,3.631,3.6308,3.6305,3.6275,0,0,0,0,0,0,3.6566,3.6558,3.6539,3.6526,3.6518,3.6465,3.6496,3.6496,3.6482,3.6485,3.6467,3.6465,3.6466,3.6423,3.6416,3.639,3.6434,3.6313,3.6309,3.6306,3.6278,3.6271,3.6266,0,0,0,0,0,3.6569,3.653,3.6538,3.6531,3.6495,3.6463,3.6459,3.6462,3.648,3.6461,3.6455,3.6466,3.6398,3.6419,3.641,3.6384,3.6314,3.631,3.6306,3.628,3.6273,3.6266,0,0,0,0,0,0,3.6537,3.6528,3.6537,3.6492,3.6479,3.6467,3.6443,3.6453,3.6432,3.6436,3.6439,3.6434,3.6393,3.6384,3.6408,3.6335,3.6359,3.6353,3.6342,3.6334,3.6328,3.6331,3.6432,0,0,0,0,0,3.6526,3.6502,3.6495,3.6456,3.6449,3.6448,3.6434,3.6438,3.6423,3.6417,3.6408,3.6391,3.6366,3.635,3.6326,3.6277,3.6273,3.6254,3.6248,3.6244,3.6239,3.6213,3.6205,3.6292,3.6292,3.6292,0,0,3.65,3.6492,3.6477,3.645,3.644,3.6415,3.6442,3.6414,3.6395,3.6412,3.6374,3.6367,3.6349,3.6304,3.6284,3.6296,3.6214,3.6239,3.6235,3.6233,3.6209,3.6201,3.6193,3.6289,3.629,3.629,0,0,3.6441,3.6433,3.6401,3.6391,3.6377,3.6376,3.6368,3.6356,3.6353,3.6315,3.6328,3.6305,3.6261,3.6249,3.6237,3.6176,3.6186,3.6168,3.6136,3.6112,3.6105,3.6099,3.6078,3.6071,3.6163,3.6163,3.6163,0,3.6411,3.6376,3.6382,3.6355,3.6343,3.6359,3.6327,3.6316,3.6293,3.6284,3.6298,3.6246,3.6235,3.6188,3.6174,3.6163,3.6154,3.617,3.6106,3.61,3.6094,3.6075,3.6067,3.6161,3.6161,3.6161,3.6161,0,3.634,3.6315,3.629,3.6272,3.6257,3.6226,3.6228,3.6212,3.6218,3.6215,3.6178,3.6165,3.6141,3.613,3.6133,3.6084,3.6092,3.6106,3.613,3.6084,3.6066,3.6058,3.6158,3.6159,3.6159,3.616,0,0,3.6258,3.6246,3.6237,3.623,3.6216,3.6196,3.6167,3.6145,3.6132,3.6116,3.6091,3.6055,3.6069,3.6055,3.6058,3.6036,3.5991,3.6053,3.6052,3.6043,3.5937,3.5928,3.5919,3.5997,3.5996,3.5995,3.5939,0,3.62,3.6151,3.6158,3.611,3.6088,3.6104,3.6079,3.6067,3.6064,3.6044,3.604,3.6016,3.6035,3.6027,3.6006,3.6001,3.597,3.6005,3.5974,3.5973,3.5979,3.5909,3.5898,3.5846,3.5932,3.593,3.5929,0,3.6125,3.611,3.6062,3.6054,3.6044,3.6021,3.6003,3.5984,3.5971,3.597,3.5957,3.5964,3.5934,3.5959,3.5917,3.5941,3.5929,3.5925,3.5923,3.592,3.5949,3.5905,3.5829,3.5822,3.5918,3.5919,3.592,0,3.6073,3.604,3.6007,3.6,3.5989,3.5973,3.5968,3.5957,3.5944,3.5927,3.5919,3.5898,3.5886,3.5869,3.5871,3.5889,3.5829,3.5854,3.5827,3.5827,3.5814,3.5815,3.5736,3.5805,3.5805,3.5805,3.5805,0,3.6007,3.5977,3.5984,3.5964,3.5931,3.5938,3.5904,3.59,3.5891,3.587,3.5881,3.5861,3.5863,3.5842,3.5843,3.5809,3.5803,3.5802,3.5803,3.5801,3.5802,3.5794,3.5798,3.5803,3.5804,3.5804,3.5804,0,3.5943,3.5946,3.5912,3.5906,3.5904,3.588,3.5874,3.5854,3.5854,3.5827,3.5821,3.5819,3.5795,3.5795,3.5767,3.5767,3.5726,3.573,3.5732,3.5733,3.5707,3.571,3.562,3.561,3.5685,3.5684,3.5683,0,3.5902,3.5879,3.5872,3.586,3.5854,3.5834,3.5822,3.5828,3.5815,3.58,3.5782,3.576,3.5743,3.5704,3.5699,3.5678,3.5683,3.5653,3.5679,3.568,3.5684,3.5685,3.5684,3.5648,3.5647,3.5646,3.5646,0,3.5828,3.5831,3.5815,3.5799,3.5785,3.5773,3.5761,3.575,3.5755,3.5739,3.5717,3.5704,3.5677,3.5655,3.5635,3.5628,3.5637,3.5638,3.5631,3.5629,3.5632,3.5631,3.5719,3.5639,3.564,3.5641,3.5641,3.5641,3.5774,3.5756,3.5749,3.573,3.5723,3.5713,3.5695,3.5693,3.5675,3.5656,3.566,3.5635,3.5624,3.5599,3.559,3.557,3.558,3.5569,3.5567,3.5564,3.5563,3.5635,3.5566,3.5566,3.5566,3.5566,3.5567,0,3.5703,3.57,3.5683,3.5668,3.5653,3.5666,3.5654,3.5641,3.562,3.5609,3.5593,3.5568,3.5547,3.5542,3.5522,3.5507,3.5511,3.5501,3.5503,3.5501,3.5554,3.5563,3.5498,3.5499,3.5499,3.5499,3.5499,3.5499,3.5664,3.5634,3.5637,3.5604,3.5601,3.5578,3.5571,3.5561,3.5553,3.5525,3.5509,3.5507,3.5499,3.5479,3.546,3.5459,3.5451,3.544,3.5441,3.549,3.5497,3.5504,3.5512,3.5438,3.5438,3.539,3.539,3.5389]}]]